星链-32097 (STARLINK-32097)

导读

STARLINK-32097是由美国于2024年8月2日发射的星链卫星,隶属于SpaceX公司的星链星座项目。该项目旨在构建全球卫星互联网,为全球偏远、欠发达地区以及海陆空交通工具提供高速低延迟互联网接入服务,此卫星进一步扩充了星链星座的在轨规模,提升了服务覆盖能力。

Basic Information
目录编号:
60351
目录名称:
STARLINK-32097
国际标识:
2024-136Y
轨道中心:
EARTH
卫星名称:
星链-32097 (STARLINK-32097)
卫星全名:
星链-32097 (STARLINK-32097)
卫星状态:
在轨 (已飞行763 天)
发射日期:
2024-08-02 UTC
国别 :
美国 (US)
星等 :
--
Orbit Information
数据来源 国际轨道数据
星历时间: 2026-09-03T22:26:57+0800
20小时前
查看轨道信息
半长轴: 6840.856km
偏心率: 0.0001045
轨道倾角: 53.161°
近地点辐角 103.763°
升交点赤经 325.028°
平近点角 256.349°
近地点: 462.004km
远地点: 463.434km
周期: 93.848分钟
每日圈数: 15.343949
Detailed Information
卫星平台:
Starlink v2.0 mini
运营商:
太空探索技术公司
运营商所在国:
美国
制造商(研发单位):
太空探索技术公司
制造商所在国:
美国
使用方式:
暂无
Satellite Introduction
星链(Starlink)计划是由太空探索技术公司(SpaceX)提出的一个巨型低轨卫星互联网星座项目,计划在2019年至2024年间在太空搭建由约1.2万颗卫星组成的“星链”网络,其中1584颗将部署在地球上空550千米处的近地轨道,并从2020年开始工作。该卫星仍在工作。
2D Orbit Map
3D Orbit Map
Orbit Altitude Analysis Chart
Orbit Inclination Analysis Chart
Orbit Comprehensive Analysis Chart
View Comprehensive Chart
Conjunction Data List
Event ID Objects TCA Miss Dist (km) Collision Risk Probability Collision Risk Index (CRI) Action
CDM_260905-172606-035106-394421
2026-09-05T
17:26:51+0000
0.479 km
远距离
2.040135E-4 高风险 0.81
CDM_260905-052106-035106-538821
2026-09-05T
05:21:10+0000
1.933 km
极远距离
3.08578E-6 低风险 0.45
CDM_260905-225305-146706-035121
2026-09-05T
22:53:24+0000
2.396 km
极远距离
1.599384E-6 低风险 0.39
CDM_260906-083905-265606-035121
2026-09-06T
08:39:11+0000
2.826 km
极远距离
1.118925E-6 低风险 0.36
CDM_260903-022705-269906-035122
2026-09-03T
02:27:20+0000
2.809 km
极远距离
1.035899E-6 低风险 0.35